RH
15 11 10 9 9 8 7 7 7 6 6 6 6 7 7 9 12 14 16 17 18 18 18 19 19 18 18 18 19 19 20 19 19 19 20 22 28 28 28 29 31 32 33 34
18 16 15 12 10 9 8 8 8 8 8 8 9 11 13 14 16 17 18 19 19 20 20 20 20 20 22 24 25 28 29 29 28 27 25 24 24 24 21 19 18 18 18 19
20 18 18 17 16 15 14 13 13 13 14 15 16 17 18 18 18 18 19 19 19 19 20 22 26 31 36 37 34 31 28 26 24 23 22 20 17 13 10 7 7 10 11 7
25 24 21 20 19 18 18 19 18 18 18 17 18 17 19 20 21 22 23 24 26 30 37 40 38 32 28 28 27 26 25 22 20 16 12 8 5 6 19 26 26 27 26 30
70 43 29 26 26 24 24 23 23 23 23 24 24 24 22 29 36 41 45 45 44 42 37 31 30 30 28 28 25 20 15 10 7 5 4 7 18 24 26 24 18 20 22 22
90 86 86 85 77 67 63 62 62 57 58 58 58 58 38 45 44 40 37 36 35 33 32 32 32 30 24 18 11 7 6 5 8 20 24 24 33 30 18 13 19 31 34 24
89 85 82 80 78 78 77 75 72 64 60 52 50 43 42 40 37 36 35 35 34 33 30 25 19 12 8 6 6 9 23 33 35 35 33 36 26 17 16 16 15 27 41 32
81 81 76 78 69 66 64 60 59 53 49 46 44 36 38 34 33 34 34 31 27 21 14 9 6 6 24 40 37 41 42 38 34 36 39 33 21 21 22 17 14 17 28 47
62 58 55 54 54 52 50 49 48 44 40 36 35 34 32 31 30 27 23 17 11 7 6 10 44 55 59 55 46 36 35 40 40 42 37 24 23 14 16 8 10 10 16 23
48 47 47 47 46 45 44 41 37 36 30 30 28 27 22 21 17 14 11 7 7 14 30 55 57 67 57 42 39 36 38 41 42 34 24 24 13 9 10 12 12 13 13 15
33 33 31 29 27 24 22 20 19 18 16 14 13 10 9 8 7 6 6 12 30 44 52 63 59 50 31 34 31 37 39 34 28 24 15 13 11 13 14 16 16 16 17 19
12 12 11 11 10 10 9 8 8 7 8 7 7 15 14 14 12 12 18 39 56 63 70 63 54 21 16 28 18 29 27 14 11 9 10 10 14 16 16 16 17 17 16 16
12 12 12 10 10 9 13 14 18 14 17 22 27 39 44 36 38 36 55 63 72 70 52 36 42 22 15 19 14 12 13 13 12 12 12 12 15 17 15 12 13 13 14 15
44 46 45 42 38 36 36 34 33 32 35 40 47 52 58 50 48 56 65 71 69 62 30 73 17 11 12 13 15 16 15 15 14 12 12 11 10 10 11 14 16 18 19 21
55 58 60 58 59 59 60 60 55 54 56 54 55 58 55 55 61 65 62 59 59 39 70 68 38 13 11 12 14 15 14 12 11 9 8 9 11 13 16 17 17 19 21 23
55 60 62 61 60 59 60 56 57 60 62 61 60 64 58 60 64 64 58 49 42 56 74 50 20 20 10 12 13 13 10 9 8 8 10 12 14 16 16 17 18 20 23 25
50 51 52 51 53 52 50 46 46 44 42 46 54 50 51 56 60 64 61 37 52 68 34 19 20 9 10 12 14 10 9 8 9 10 13 15 16 17 17 17 18 22 26 27
39 40 43 41 41 43 39 42 44 42 30 36 26 18 58 71 67 62 60 42 39 19 24 16 9 9 10 10 10 8 8 8 9 13 15 15 16 16 16 16 22 28 30 29
14 18 19 22 27 30 30 24 18 10 11 8 11 14 19 38 84 72 58 51 24 30 11 8 10 11 10 8 8 8 8 8 10 13 14 14 15 15 15 19 28 35 38 36
6 5 5 5 6 8 6 7 6 6 6 6 5 6 13 14 50 62 51 54 25 20 10 10 10 8 8 7 7 7 6 8 11 12 13 14 13 14 18 25 32 38 40 41
9 9 9 8 7 7 6 5 5 5 4 4 4 5 9 25 27 45 40 29 29 11 9 10 7 6 7 7 5 5 7 11 11 12 12 12 13 18 26 32 36 41 43 41
11 10 10 10 11 11 10 8 7 5 4 4 4 5 7 12 19 22 16 8 8 8 8 7 5 4 4 4 4 5 9 11 10 10 12 14 20 31 39 41 42 43 44 38
13 13 13 15 16 14 11 9 9 8 7 5 5 4 5 9 9 13 7 6 6 5 5 5 4 4 4 4 4 7 9 9 9 12 14 20 30 37 39 38 38 37 39 42
28 25 20 15 18 19 15 13 13 13 10 9 7 6 5 5 5 7 7 7 7 7 5 4 4 4 4 6 8 8 9 9 12 16 23 28 30 31 32 35 37 40 43 50
84 67 35 31 28 27 26 19 14 13 13 14 12 9 8 7 6 5 5 5 5 5 5 4 4 5 7 7 8 8 10 12 18 26 28 28 27 28 32 37 39 43 44 45
91 82 77 78 81 70 45 27 30 26 19 13 13 16 16 13 10 8 8 8 7 6 6 6 6 6 7 8 10 13 18 23 24 24 23 24 25 26 29 37 39 44 49 47
Wind_Speed
39 40 40 40 39 39 40 40 40 41 41 42 42 40 41 41 39 40 41 42 43 44 46 47 47 48 49 50 50 51 51 51 53 54 56 57 59 60 60 60 60 62 64 65
39 39 39 40 40 40 41 41 41 42 42 44 43 40 41 42 40 41 43 46 47 48 49 49 51 51 52 52 53 54 54 54 55 56 54 53 52 52 54 56 58 61 64 66
35 37 38 38 39 40 41 42 42 43 43 44 44 43 41 42 45 46 48 49 50 50 51 52 52 52 53 53 52 50 50 49 48 48 47 48 50 53 56 60 62 64 68 72
33 32 35 37 38 39 40 41 42 42 43 45 46 50 44 44 45 47 49 50 50 51 52 52 50 49 48 46 44 43 44 44 45 46 47 50 53 50 46 49 55 59 64 65
52 46 40 36 36 38 38 40 41 43 45 46 44 50 50 44 46 49 51 53 52 50 47 45 43 42 42 42 42 43 44 45 46 49 50 44 38 38 43 53 63 61 62 64
36 42 47 51 51 50 48 47 47 49 50 53 52 52 51 46 42 42 43 44 43 42 41 39 39 39 40 41 42 45 48 46 38 33 35 32 30 36 41 38 44 51 51 50
28 31 34 36 37 39 40 41 43 44 44 43 42 43 39 38 37 36 35 35 36 36 35 35 36 38 41 42 38 33 26 27 28 26 23 22 27 25 25 32 36 40 43 40
18 19 21 24 27 28 30 31 32 35 34 34 35 35 32 33 34 32 31 30 30 30 33 36 36 28 22 19 18 20 23 22 20 16 16 18 20 20 22 27 33 37 35 34
16 16 17 19 20 22 23 24 25 28 29 30 29 29 31 29 30 29 29 30 31 33 29 19 12 10 12 14 17 22 20 15 15 16 12 14 8 14 15 24 32 35 44 39
12 13 15 16 16 17 18 20 21 23 26 28 28 26 29 30 30 30 31 30 25 14 10 9 7 8 7 7 10 14 10 5 4 5 5 3 5 13 17 24 28 34 39 42
8 9 10 11 13 14 16 17 20 23 26 28 29 27 31 32 32 30 26 15 11 11 9 6 6 7 5 5 7 8 8 8 7 8 8 6 10 13 18 24 28 33 35 38
8 10 12 14 16 18 20 22 25 26 26 27 27 18 24 19 18 16 12 12 10 8 9 12 10 13 5 6 9 8 10 10 7 7 8 7 9 14 18 23 25 27 29 30
8 9 9 10 12 14 14 15 16 16 13 11 12 14 11 10 10 11 11 11 9 12 14 11 18 14 9 7 2 5 5 5 5 6 8 9 12 15 19 22 24 26 27 28
3 1 1 3 4 5 6 7 8 8 8 9 11 10 8 7 8 10 12 9 11 15 11 17 18 14 10 6 3 2 2 3 3 6 8 11 14 17 20 22 25 27 28 28
4 4 3 3 2 2 2 4 4 4 4 4 5 6 5 7 7 8 6 9 15 14 17 20 15 13 8 7 6 4 3 3 6 9 11 14 17 19 22 25 27 29 29 29
5 5 5 5 5 5 5 5 5 5 5 5 4 4 3 7 8 9 7 11 15 15 20 18 14 12 10 9 7 5 4 5 9 12 13 15 18 21 24 27 29 30 30 29
5 5 5 4 3 2 3 4 4 6 7 8 8 9 10 10 9 9 10 11 15 20 18 14 15 10 10 9 8 7 8 10 11 13 14 17 21 25 28 30 32 32 32 31
2 2 2 2 3 5 6 8 10 12 12 13 16 17 14 13 12 12 14 14 25 20 17 16 16 13 12 11 10 10 10 11 13 14 16 20 24 28 31 32 32 33 32 31
4 5 5 6 8 8 8 9 9 8 7 9 11 11 12 17 17 14 17 18 29 19 15 16 16 14 12 11 11 12 13 15 15 17 20 24 28 30 32 33 32 32 31 30
5 5 5 4 5 4 5 4 5 6 6 7 9 10 9 10 16 14 15 21 29 21 18 17 16 15 15 15 14 15 17 19 19 22 25 28 31 32 32 33 31 31 32 32
11 10 10 9 10 12 11 9 9 8 8 7 8 8 7 4 8 11 19 25 23 17 17 16 16 16 17 17 18 20 21 22 24 27 30 32 33 33 32 33 33 33 34 34
18 18 17 16 16 19 18 16 15 12 11 11 10 9 6 4 8 18 19 18 19 19 20 20 21 21 22 23 25 26 27 27 30 33 35 35 35 34 34 36 37 37 36 36
23 23 23 21 21 25 25 24 21 19 18 17 15 15 12 11 13 16 18 21 23 23 24 26 27 28 30 31 29 30 34 33 34 37 38 36 36 36 37 39 39 41 41 40
27 29 28 30 29 33 27 25 25 25 25 25 23 20 19 20 21 23 26 29 30 31 31 33 32 33 34 35 33 34 39 41 38 38 40 40 40 42 42 42 43 44 43 43
25 31 35 31 30 41 35 33 32 30 29 28 30 30 28 28 28 29 30 32 32 33 35 35 35 36 37 41 41 43 43 43 42 41 42 43 44 45 46 47 47 47 47 45
31 32 40 41 39 36 33 38 40 37 36 37 33 34 36 37 35 37 36 38 39 39 40 41 42 43 44 45 47 47 46 45 45 45 46 47 48 48 48 49 50 49 48 47
Wind_Direction
212 216 217 220 223 226 228 230 233 237 241 246 249 252 254 254 257 259 261 264 267 268 269 271 275 277 279 280 282 283 283 283 282 283 283 282 283 282 282 281 280 278 277 275
213 218 221 224 227 232 235 238 241 245 248 252 255 257 259 262 261 262 265 267 270 275 279 281 282 283 284 285 285 284 284 284 284 284 285 284 284 284 282 279 277 275 273 271
217 220 224 227 231 234 239 243 247 250 253 257 259 260 263 267 270 270 271 273 275 278 280 280 281 282 282 283 284 285 286 285 285 285 285 284 283 282 282 284 284 283 279 275
220 220 227 230 234 238 242 245 249 253 256 258 261 263 261 264 270 274 276 278 278 278 279 281 283 283 283 283 283 282 282 282 282 283 283 283 285 289 289 289 289 289 286 280
226 229 231 236 236 239 245 248 251 254 257 260 262 267 267 265 266 269 271 273 275 277 278 279 280 282 282 282 282 281 281 282 284 286 288 290 292 295 300 302 300 298 294 283
224 230 236 239 242 246 250 254 257 259 262 262 264 266 267 270 268 266 267 269 271 272 275 277 279 280 281 281 283 284 286 290 291 285 288 293 301 306 309 316 309 301 301 298
224 229 233 237 242 246 248 251 254 257 259 260 262 262 265 267 269 269 266 264 266 270 273 277 280 282 285 287 289 288 288 291 296 301 294 311 313 317 328 336 334 317 304 304
203 215 225 231 237 241 243 248 250 254 257 259 259 261 264 265 266 268 268 268 269 272 275 280 285 284 280 280 287 298 311 306 306 309 315 316 312 322 335 343 15 7 337 314
201 207 216 224 231 236 240 245 249 254 257 259 261 265 267 266 266 267 270 273 278 282 286 279 265 287 299 303 310 311 316 309 310 302 305 318 337 347 360 7 11 14 22 11
199 208 218 226 233 238 243 247 253 260 263 265 266 268 271 270 271 272 275 283 285 272 257 249 286 291 285 304 332 322 333 327 303 322 341 348 4 15 8 10 14 20 24 27
194 205 217 226 236 245 251 257 263 266 270 275 276 278 275 275 274 274 275 258 240 240 231 257 281 206 147 86 64 62 90 94 93 102 95 109 17 17 11 15 16 20 20 19
240 242 249 253 259 264 270 272 272 277 278 278 282 283 277 274 262 245 222 224 219 227 250 266 205 175 131 127 92 86 113 112 88 75 61 49 17 9 8 6 7 9 12 17
226 239 247 247 250 254 262 267 271 272 270 266 270 275 267 248 227 215 208 196 221 256 284 223 185 188 167 157 114 108 122 74 67 55 30 15 0 358 356 357 358 359 1 4
133 143 233 247 262 267 267 277 280 288 282 276 278 275 259 235 211 199 198 217 256 280 258 191 184 196 192 199 185 149 108 64 16 358 355 348 349 352 354 355 355 355 356 357
96 93 76 55 36 356 330 317 322 329 325 326 308 297 268 211 188 195 234 252 267 262 198 189 189 195 211 208 195 198 236 309 336 348 344 345 352 351 349 348 348 348 348 349
84 80 71 68 60 54 37 18 1 351 340 332 324 287 281 235 228 239 240 258 259 215 190 185 203 206 217 218 222 239 285 321 337 337 339 343 344 341 340 340 339 340 340 339
75 65 51 45 41 21 347 346 336 319 308 304 286 280 277 267 261 256 250 261 210 188 188 201 206 220 222 228 237 264 298 320 327 328 328 330 330 331 331 332 333 334 335 335
10 351 331 310 308 295 298 303 303 294 293 285 279 278 266 256 248 245 249 235 187 184 193 207 216 225 228 238 258 281 295 301 306 309 314 319 321 322 324 326 327 329 331 332
314 306 300 302 294 292 289 285 285 286 276 287 292 293 269 246 231 236 249 221 189 196 209 217 226 229 235 245 258 271 278 286 294 302 307 310 312 316 319 321 324 327 328 330
333 338 333 336 304 266 280 266 279 296 300 304 314 317 305 272 232 229 242 200 191 206 220 233 238 240 241 251 259 272 284 288 294 299 303 305 310 312 315 316 319 321 321 322
287 288 294 297 296 292 285 277 276 282 293 297 307 321 316 277 218 219 198 197 207 230 237 236 242 248 253 259 271 280 283 284 293 297 301 304 308 309 310 310 313 314 314 317
278 280 280 281 279 281 280 277 275 278 276 280 280 291 306 246 220 195 201 218 228 236 240 245 255 262 264 270 278 283 283 289 294 299 301 304 306 305 306 307 308 308 310 312
280 277 277 276 275 268 269 271 274 278 278 272 268 268 262 238 219 219 236 236 241 248 252 255 261 269 272 276 278 281 283 289 294 297 298 300 298 299 301 303 304 306 307 306
284 283 280 273 271 270 269 271 272 273 270 270 268 265 261 249 246 245 245 251 255 259 260 263 265 267 270 272 275 279 285 290 294 295 296 296 297 298 299 300 302 303 304 305
284 277 271 264 266 271 279 276 272 270 267 264 267 266 262 258 256 254 253 253 254 258 260 261 261 264 269 275 279 282 284 287 291 291 291 293 295 297 299 301 302 302 300 300
281 275 278 281 276 278 277 280 279 276 273 270 265 265 264 261 257 260 260 261 262 262 262 264 267 269 272 275 279 281 286 288 289 290 290 291 292 293 295 297 299 299 298 298